Simultaneous Nadir Overpasses (SNOs) Predictions

Prediction of SNOs between NPP and PACE Satellite Orbit:

Table of predicted SNOs for the next 14.0 days since TLE Epoch: 9/14/2024
Index Date (NPP) Time (NPP) Lat,Lon (NPP) SZA (NPP ) Date (PACE) Time (PACE) Lat,Lon (PACE) SZA (PACE ) Distance(km) Time Diff (sec)
1 09/14/2024 14:38:20 -79.97, 101.91 101.05 09/14/2024 14:38:54 -79.97, 101.97 101.08 1.15 34
2 09/14/2024 15:28:56 79.70, -88.20 78.48 09/14/2024 15:27:56 79.71, -88.34 78.52 2.89 60
3 09/16/2024 18:13:58 80.00,-132.26 79.80 09/16/2024 18:15:11 80.01,-132.40 79.79 2.78 73
4 09/16/2024 19:04:39 -79.88, 36.21 100.40 09/16/2024 19:04:16 -79.88, 36.35 100.41 2.79 23
5 09/18/2024 22:40:17 79.92, 161.91 80.48 09/18/2024 22:40:31 79.92, 161.98 80.46 1.49 14
6 09/21/2024 02:15:56 -80.00, -72.74 98.57 09/21/2024 02:16:45 -80.00, -72.70 98.60 0.72 49
7 09/21/2024 03:06:35 79.83, 96.26 81.13 09/21/2024 03:05:49 79.82, 96.36 81.14 1.99 46
8 09/23/2024 06:42:11 -79.82,-137.61 98.07 09/23/2024 06:41:59 -79.83,-137.72 98.05 2.30 12
9 09/25/2024 10:17:49 79.90, -12.25 82.89 09/25/2024 10:18:09 79.91, -12.35 82.90 1.96 20
10 09/25/2024 11:07:29 -77.52, 170.70 100.62 09/25/2024 11:06:16 -77.30, 169.35 100.69 40.57 73
11 09/27/2024 13:53:27 -79.98, 113.10 96.16 09/27/2024 13:54:17 -79.97, 113.10 96.19 0.20 50



Historial Predications of SNOs between NPP and PACE
